Time,TemperatureF,DewpointF,PressureIn,WindDirection,WindDirectionDegrees,WindSpeedMPH,WindSpeedGustMPH,Humidity,HourlyPrecipIn,Conditions,Clouds,dailyrainin,SoftwareType,DateUTC
2013-05-26 00:03:00,60.2,48.4,30.20,ESE,107,1.0,5.0,65,0.00,,OVC080,0.00,VWS V14.01,2013-05-26 05:03:00,
2013-05-26 00:08:00,60.1,48.3,30.20,East,79,1.0,8.0,65,0.00,,OVC080,0.00,VWS V14.01,2013-05-26 05:08:00,
2013-05-26 00:13:00,60.1,48.3,30.20,East,96,5.0,6.0,65,0.00,,OVC080,0.00,VWS V14.01,2013-05-26 05:13:00,
2013-05-26 00:18:00,60.0,48.2,30.20,SSE,154,0.0,6.0,65,0.00,,OVC080,0.00,VWS V14.01,2013-05-26 05:18:00,
2013-05-26 00:23:00,60.0,48.2,30.20,ENE,77,0.0,2.0,65,0.00,,OVC080,0.00,VWS V14.01,2013-05-26 05:23:00,
2013-05-26 00:28:00,59.9,48.1,30.20,ESE,118,1.0,7.0,65,0.00,,OVC080,0.00,VWS V14.01,2013-05-26 05:28:00,
2013-05-26 00:33:00,59.8,48.0,30.20,SE,136,2.0,2.0,65,0.00,,OVC080,0.00,VWS V14.01,2013-05-26 05:33:00,
2013-05-26 00:38:00,59.6,48.2,30.20,SSE,147,5.0,5.0,66,0.00,,OVC080,0.00,VWS V14.01,2013-05-26 05:38:00,
2013-05-26 00:43:00,59.5,48.5,30.20,ESE,114,1.0,2.0,67,0.00,,OVC070,0.00,VWS V14.01,2013-05-26 05:43:00,
2013-05-26 00:48:00,59.2,48.7,30.20,East,98,0.0,5.0,68,0.00,,OVC070,0.00,VWS V14.01,2013-05-26 05:48:00,
2013-05-26 00:53:00,58.9,48.8,30.20,ENE,76,3.0,7.0,69,0.00,,OVC070,0.00,VWS V14.01,2013-05-26 05:53:00,
2013-05-26 00:58:00,58.7,49.0,30.20,SE,133,0.0,7.0,70,0.00,,OVC070,0.00,VWS V14.01,2013-05-26 05:58:00,
2013-05-26 01:03:00,58.5,48.8,30.20,ENE,72,1.0,7.0,70,0.00,,OVC080,0.00,VWS V14.01,2013-05-26 06:03:00,
2013-05-26 01:08:00,58.3,49.0,30.19,SE,130,0.0,8.0,71,0.00,,OVC080,0.00,VWS V14.01,2013-05-26 06:08:00,
2013-05-26 01:13:00,58.2,48.8,30.19,ESE,120,0.0,8.0,71,0.00,,OVC080,0.00,VWS V14.01,2013-05-26 06:13:00,
2013-05-26 01:18:00,58.1,49.1,30.19,North,355,3.0,8.0,72,0.00,,OVC080,0.00,VWS V14.01,2013-05-26 06:18:00,
2013-05-26 01:23:00,58.0,49.0,30.19,ESE,122,1.0,6.0,72,0.00,,OVC080,0.00,VWS V14.01,2013-05-26 06:23:00,
2013-05-26 01:28:00,58.0,49.0,30.19,NNE,24,1.0,8.0,72,0.00,,OVC080,0.00,VWS V14.01,2013-05-26 06:28:00,
2013-05-26 01:33:00,58.0,49.0,30.19,ESE,111,5.0,13.0,72,0.00,,OVC080,0.00,VWS V14.01,2013-05-26 06:33:00,
2013-05-26 01:38:00,57.9,48.9,30.19,East,99,0.0,13.0,72,0.00,,OVC080,0.00,VWS V14.01,2013-05-26 06:38:00,
2013-05-26 01:43:00,57.9,49.3,30.19,East,86,2.0,4.0,73,0.00,,BKN110,0.00,VWS V14.01,2013-05-26 06:43:00,
2013-05-26 01:48:00,57.8,49.2,30.19,ESE,109,4.0,10.0,73,0.00,,BKN110,0.00,VWS V14.01,2013-05-26 06:48:00,
2013-05-26 01:53:00,57.8,49.2,30.19,SE,138,4.0,8.0,73,0.00,,BKN110,0.00,VWS V14.01,2013-05-26 06:53:00,
2013-05-26 01:58:00,57.8,49.2,30.19,NNE,32,0.0,8.0,73,0.00,,BKN110,0.00,VWS V14.01,2013-05-26 06:58:00,
2013-05-26 02:03:00,57.7,49.1,30.19,SE,132,4.0,8.0,73,0.00,,BKN110,0.00,VWS V14.01,2013-05-26 07:03:00,
2013-05-26 02:08:00,57.7,49.1,30.19,SE,130,1.0,8.0,73,0.00,,BKN110,0.00,VWS V14.01,2013-05-26 07:08:00,
2013-05-26 02:13:00,57.7,49.5,30.19,ESE,115,0.0,1.0,74,0.00,,BKN110,0.00,VWS V14.01,2013-05-26 07:13:00,
2013-05-26 02:18:00,57.7,49.5,30.19,East,94,2.0,6.0,74,0.00,,BKN110,0.00,VWS V14.01,2013-05-26 07:18:00,
2013-05-26 02:23:00,57.7,49.5,30.18,ESE,123,5.0,9.0,74,0.00,,BKN110,0.00,VWS V14.01,2013-05-26 07:23:00,
2013-05-26 02:28:00,57.7,49.5,30.18,East,101,2.0,9.0,74,0.00,,BKN110,0.00,VWS V14.01,2013-05-26 07:28:00,
2013-05-26 02:33:00,57.6,49.8,30.17,SE,133,8.0,8.0,75,0.00,,BKN110,0.00,VWS V14.01,2013-05-26 07:33:00,
2013-05-26 02:38:00,57.5,49.7,30.17,ENE,57,4.0,11.0,75,0.00,,BKN110,0.00,VWS V14.01,2013-05-26 07:38:00,
2013-05-26 02:43:00,57.5,49.7,30.18,ESE,115,4.0,7.0,75,0.00,,OVC046,0.00,VWS V14.01,2013-05-26 07:43:00,
2013-05-26 02:48:00,57.3,49.5,30.17,ESE,117,4.0,11.0,75,0.00,,OVC046,0.00,VWS V14.01,2013-05-26 07:48:00,
2013-05-26 02:53:00,57.3,49.8,30.17,SE,128,0.0,5.0,76,0.00,,BKN110,0.00,VWS V14.01,2013-05-26 07:53:00,
2013-05-26 02:58:00,57.2,49.7,30.17,SE,140,0.0,8.0,76,0.00,,BKN110,0.00,VWS V14.01,2013-05-26 07:58:00,
2013-05-26 03:03:00,57.2,50.1,30.17,SE,130,5.0,8.0,77,0.00,,OVC044,0.00,VWS V14.01,2013-05-26 08:03:00,
2013-05-26 03:08:00,57.1,50.0,30.17,SSE,157,1.0,9.0,77,0.00,,OVC044,0.00,VWS V14.01,2013-05-26 08:08:00,
2013-05-26 03:13:00,57.1,50.0,30.17,ESE,117,0.0,9.0,77,0.00,,OVC044,0.00,VWS V14.01,2013-05-26 08:13:00,
2013-05-26 03:18:00,57.1,50.0,30.17,ESE,108,4.0,9.0,77,0.00,,OVC044,0.00,VWS V14.01,2013-05-26 08:18:00,
2013-05-26 03:23:00,57.1,50.0,30.16,ESE,120,1.0,9.0,77,0.00,,OVC044,0.00,VWS V14.01,2013-05-26 08:23:00,
2013-05-26 03:28:00,57.0,49.9,30.16,SSE,155,0.0,11.0,77,0.00,,OVC044,0.00,VWS V14.01,2013-05-26 08:28:00,
2013-05-26 03:33:00,56.9,50.1,30.16,South,175,0.0,5.0,78,0.00,,OVC044,0.00,VWS V14.01,2013-05-26 08:33:00,
2013-05-26 03:38:00,56.8,50.0,30.16,ESE,109,1.0,8.0,78,0.00,,OVC044,0.00,VWS V14.01,2013-05-26 08:38:00,
2013-05-26 03:43:00,56.8,50.0,30.16,East,97,2.0,7.0,78,0.00,,OVC040,0.00,VWS V14.01,2013-05-26 08:43:00,
2013-05-26 03:48:00,56.6,49.8,30.16,ESE,105,4.0,11.0,78,0.00,,OVC040,0.00,VWS V14.01,2013-05-26 08:48:00,
2013-05-26 03:53:00,56.5,50.1,30.16,ESE,121,0.0,1.0,79,0.00,,OVC040,0.00,VWS V14.01,2013-05-26 08:53:00,
2013-05-26 03:58:00,56.4,50.0,30.16,SE,124,0.0,6.0,79,0.00,,OVC040,0.00,VWS V14.01,2013-05-26 08:58:00,
2013-05-26 04:03:00,56.3,49.9,30.16,SE,134,0.0,1.0,79,0.00,,SCT040,0.00,VWS V14.01,2013-05-26 09:03:00,
2013-05-26 04:08:00,56.2,50.1,30.16,ESE,119,1.0,7.0,80,0.00,,SCT040,0.00,VWS V14.01,2013-05-26 09:08:00,
2013-05-26 04:13:00,56.0,49.9,30.17,SE,133,0.0,8.0,80,0.00,,SCT040,0.00,VWS V14.01,2013-05-26 09:13:00,
2013-05-26 04:18:00,55.9,49.8,30.16,SE,132,1.0,8.0,80,0.00,,SCT040,0.00,VWS V14.01,2013-05-26 09:18:00,
2013-05-26 04:23:00,55.8,50.1,30.17,SE,144,0.0,5.0,81,0.00,,SCT040,0.00,VWS V14.01,2013-05-26 09:23:00,
2013-05-26 04:28:00,55.7,50.0,30.17,East,94,5.0,8.0,81,0.00,,SCT040,0.00,VWS V14.01,2013-05-26 09:28:00,
2013-05-26 04:33:00,55.7,50.0,30.17,ESE,115,4.0,4.0,81,0.00,,CLR,0.00,VWS V14.01,2013-05-26 09:33:00,
2013-05-26 04:38:00,55.6,49.9,30.17,East,90,2.0,5.0,81,0.00,,CLR,0.00,VWS V14.01,2013-05-26 09:38:00,
2013-05-26 04:43:00,55.5,49.8,30.17,SSE,153,0.0,5.0,81,0.00,,CLR,0.00,VWS V14.01,2013-05-26 09:43:00,
2013-05-26 04:48:00,55.4,49.7,30.16,East,96,0.0,5.0,81,0.00,,CLR,0.00,VWS V14.01,2013-05-26 09:48:00,
2013-05-26 04:53:00,55.4,49.7,30.17,ENE,74,3.0,5.0,81,0.00,,CLR,0.00,VWS V14.01,2013-05-26 09:53:00,
2013-05-26 04:58:00,55.4,49.7,30.17,East,94,0.0,7.0,81,0.00,,CLR,0.00,VWS V14.01,2013-05-26 09:58:00,
2013-05-26 05:03:00,55.3,49.9,30.17,SSE,165,0.0,7.0,82,0.00,,CLR,0.00,VWS V14.01,2013-05-26 10:03:00,
2013-05-26 05:08:00,55.3,49.9,30.17,SE,125,0.0,7.0,82,0.00,,CLR,0.00,VWS V14.01,2013-05-26 10:08:00,
2013-05-26 05:13:00,55.3,49.6,30.17,East,97,2.0,5.0,81,0.00,,CLR,0.00,VWS V14.01,2013-05-26 10:13:00,
2013-05-26 05:18:00,55.3,49.9,30.17,ESE,118,0.0,5.0,82,0.00,,CLR,0.00,VWS V14.01,2013-05-26 10:18:00,
2013-05-26 05:23:00,55.2,49.8,30.17,ESE,123,0.0,5.0,82,0.00,,CLR,0.00,VWS V14.01,2013-05-26 10:23:00,
2013-05-26 05:28:00,55.2,49.8,30.18,SE,128,0.0,7.0,82,0.00,,CLR,0.00,VWS V14.01,2013-05-26 10:28:00,
2013-05-26 05:33:00,55.2,49.8,30.18,ESE,107,0.0,5.0,82,0.00,,CLR,0.00,VWS V14.01,2013-05-26 10:33:00,
2013-05-26 05:38:00,55.3,49.9,30.18,ESE,117,0.0,5.0,82,0.00,,CLR,0.00,VWS V14.01,2013-05-26 10:38:00,
2013-05-26 05:43:00,55.3,49.9,30.18,ESE,121,4.0,7.0,82,0.00,,CLR,0.00,VWS V14.01,2013-05-26 10:43:00,
2013-05-26 05:48:00,55.3,49.9,30.18,SE,138,1.0,7.0,82,0.00,,CLR,0.00,VWS V14.01,2013-05-26 10:48:00,
2013-05-26 05:53:00,55.3,49.9,30.18,SE,141,0.0,7.0,82,0.00,,CLR,0.00,VWS V14.01,2013-05-26 10:53:00,
2013-05-26 05:58:00,55.3,49.9,30.18,ESE,121,0.0,9.0,82,0.00,,CLR,0.00,VWS V14.01,2013-05-26 10:58:00,
2013-05-26 06:03:00,55.4,50.0,30.18,SE,133,4.0,4.0,82,0.00,,SCT110,0.00,VWS V14.01,2013-05-26 11:03:00,
2013-05-26 06:08:00,55.4,50.0,30.18,SE,136,2.0,5.0,82,0.00,,SCT110,0.00,VWS V14.01,2013-05-26 11:08:00,
2013-05-26 06:13:00,55.5,50.1,30.18,SE,132,0.0,7.0,82,0.00,,SCT110,0.00,VWS V14.01,2013-05-26 11:13:00,
2013-05-26 06:18:00,55.5,50.1,30.18,SE,142,0.0,7.0,82,0.00,,SCT110,0.00,VWS V14.01,2013-05-26 11:18:00,
2013-05-26 06:23:00,55.7,50.3,30.18,ESE,110,0.0,6.0,82,0.00,,SCT110,0.00,VWS V14.01,2013-05-26 11:23:00,
2013-05-26 06:28:00,55.8,50.1,30.18,ESE,117,6.0,7.0,81,0.00,,SCT110,0.00,VWS V14.01,2013-05-26 11:28:00,
2013-05-26 06:33:00,55.9,50.2,30.18,SE,124,0.0,2.0,81,0.00,,SCT110,0.00,VWS V14.01,2013-05-26 11:33:00,
2013-05-26 06:38:00,56.0,50.3,30.18,SSE,150,6.0,9.0,81,0.00,,SCT110,0.00,VWS V14.01,2013-05-26 11:38:00,
2013-05-26 06:43:00,56.1,50.4,30.17,ESE,121,4.0,4.0,81,0.00,,SCT120,0.00,VWS V14.01,2013-05-26 11:43:00,
2013-05-26 06:48:00,56.2,50.5,30.17,SE,134,0.0,12.0,81,0.00,,SCT120,0.00,VWS V14.01,2013-05-26 11:48:00,
2013-05-26 06:53:00,56.3,50.5,30.17,ESE,111,4.0,5.0,81,0.00,,SCT120,0.00,VWS V14.01,2013-05-26 11:53:00,
2013-05-26 06:58:00,56.5,50.8,30.17,SSE,150,9.0,9.0,81,0.00,,SCT120,0.00,VWS V14.01,2013-05-26 11:58:00,
2013-05-26 07:03:00,56.7,50.6,30.17,East,98,2.0,5.0,80,0.00,,SCT120,0.00,VWS V14.01,2013-05-26 12:03:00,
2013-05-26 07:08:00,56.9,50.8,30.17,South,189,0.0,6.0,80,0.00,,SCT120,0.00,VWS V14.01,2013-05-26 12:08:00,
2013-05-26 07:13:00,57.2,51.1,30.17,ESE,121,5.0,7.0,80,0.00,,SCT120,0.00,VWS V14.01,2013-05-26 12:13:00,
2013-05-26 07:18:00,57.5,51.4,30.17,SSE,165,6.0,14.0,80,0.00,,SCT120,0.00,VWS V14.01,2013-05-26 12:18:00,
2013-05-26 07:23:00,57.8,51.3,30.17,SSE,148,0.0,12.0,79,0.00,,SCT085,0.00,VWS V14.01,2013-05-26 12:23:00,
2013-05-26 07:28:00,58.0,51.5,30.18,SE,140,9.0,12.0,79,0.00,,SCT085,0.00,VWS V14.01,2013-05-26 12:28:00,
2013-05-26 07:33:00,58.0,51.5,30.17,SE,134,0.0,10.0,79,0.00,,SCT085,0.00,VWS V14.01,2013-05-26 12:33:00,
2013-05-26 07:38:00,58.1,51.6,30.18,ESE,119,1.0,10.0,79,0.00,,SCT085,0.00,VWS V14.01,2013-05-26 12:38:00,
2013-05-26 07:43:00,58.1,51.6,30.18,ESE,105,5.0,7.0,79,0.00,,SCT085,0.00,VWS V14.01,2013-05-26 12:43:00,
2013-05-26 07:48:00,58.3,51.5,30.18,SSE,153,4.0,11.0,78,0.00,,SCT085,0.00,VWS V14.01,2013-05-26 12:48:00,
2013-05-26 07:53:00,58.4,51.9,30.19,East,81,3.0,9.0,79,0.00,,SCT100,0.00,VWS V14.01,2013-05-26 12:53:00,
2013-05-26 07:58:00,58.5,51.7,30.19,SSE,151,0.0,9.0,78,0.00,,SCT100,0.00,VWS V14.01,2013-05-26 12:58:00,
2013-05-26 08:03:00,58.6,51.8,30.19,SE,132,1.0,9.0,78,0.00,,SCT100,0.00,VWS V14.01,2013-05-26 13:03:00,
2013-05-26 08:08:00,58.7,51.9,30.19,SE,126,1.0,9.0,78,0.00,,SCT100,0.00,VWS V14.01,2013-05-26 13:08:00,
2013-05-26 08:13:00,58.9,52.1,30.19,SE,144,7.0,11.0,78,0.00,,SCT100,0.00,VWS V14.01,2013-05-26 13:13:00,
2013-05-26 08:18:00,59.1,52.3,30.19,SE,144,9.0,12.0,78,0.00,,SCT100,0.00,VWS V14.01,2013-05-26 13:18:00,
2013-05-26 08:23:00,59.3,52.5,30.20,SE,134,8.0,8.0,78,0.00,,SCT100,0.00,VWS V14.01,2013-05-26 13:23:00,
2013-05-26 08:28:00,59.6,52.7,30.19,East,94,8.0,8.0,78,0.00,,SCT100,0.00,VWS V14.01,2013-05-26 13:28:00,
2013-05-26 08:33:00,59.8,52.6,30.18,SE,140,2.0,11.0,77,0.00,,SCT100,0.00,VWS V14.01,2013-05-26 13:33:00,
2013-05-26 08:38:00,60.1,52.9,30.19,ESE,123,5.0,11.0,77,0.00,,SCT100,0.00,VWS V14.01,2013-05-26 13:38:00,
2013-05-26 08:43:00,60.3,53.1,30.19,SE,132,0.0,4.0,77,0.00,,OVC060,0.00,VWS V14.01,2013-05-26 13:43:00,
2013-05-26 08:48:00,60.6,53.4,30.19,SSW,202,3.0,6.0,77,0.00,,OVC060,0.00,VWS V14.01,2013-05-26 13:48:00,
2013-05-26 08:53:00,60.9,53.7,30.19,SE,134,4.0,8.0,77,0.00,,OVC060,0.00,VWS V14.01,2013-05-26 13:53:00,
2013-05-26 08:58:00,61.2,53.6,30.19,SSE,148,2.0,12.0,76,0.00,,OVC060,0.00,VWS V14.01,2013-05-26 13:58:00,
2013-05-26 09:03:00,61.4,53.8,30.20,ESE,105,0.0,5.0,76,0.00,,OVC060,0.00,VWS V14.01,2013-05-26 14:03:00,
2013-05-26 09:09:00,61.6,53.6,30.20,ESE,109,2.0,7.0,75,0.00,,OVC060,0.00,VWS V14.01,2013-05-26 14:09:00,
2013-05-26 09:14:00,61.6,53.6,30.20,SE,136,0.0,9.0,75,0.00,,OVC060,0.00,VWS V14.01,2013-05-26 14:14:00,
2013-05-26 09:19:00,61.7,54.1,30.19,ENE,68,4.0,9.0,76,0.00,,OVC060,0.00,VWS V14.01,2013-05-26 14:19:00,
2013-05-26 09:24:00,62.0,54.4,30.19,ESE,121,2.0,8.0,76,0.00,,OVC060,0.00,VWS V14.01,2013-05-26 14:24:00,
2013-05-26 09:29:00,62.6,54.9,30.18,SE,128,1.0,9.0,76,0.00,,OVC060,0.00,VWS V14.01,2013-05-26 14:29:00,
2013-05-26 09:34:00,63.4,55.0,30.18,ENE,59,2.0,7.0,74,0.00,,OVC060,0.00,VWS V14.01,2013-05-26 14:34:00,
2013-05-26 09:39:00,63.8,55.0,30.18,East,101,5.0,9.0,73,0.00,,OVC060,0.00,VWS V14.01,2013-05-26 14:39:00,
2013-05-26 09:44:00,64.1,55.3,30.18,NE,50,2.0,13.0,73,0.00,,OVC060,0.00,VWS V14.01,2013-05-26 14:44:00,
2013-05-26 09:49:00,64.7,55.5,30.18,SSE,148,4.0,13.0,72,0.00,,OVC060,0.00,VWS V14.01,2013-05-26 14:49:00,
2013-05-26 09:54:00,65.4,55.8,30.18,SSE,150,0.0,12.0,71,0.00,,OVC060,0.00,VWS V14.01,2013-05-26 14:54:00,
2013-05-26 09:59:00,66.0,56.3,30.18,SE,128,1.0,12.0,71,0.00,,OVC060,0.00,VWS V14.01,2013-05-26 14:59:00,
2013-05-26 10:04:00,66.5,56.4,30.18,ESE,121,6.0,9.0,70,0.00,,SCT070,0.00,VWS V14.01,2013-05-26 15:04:00,
2013-05-26 10:09:00,66.7,56.2,30.18,East,88,3.0,10.0,69,0.00,,SCT070,0.00,VWS V14.01,2013-05-26 15:09:00,
2013-05-26 10:14:00,67.0,56.9,30.17,SSE,167,1.0,8.0,70,0.00,,SCT070,0.00,VWS V14.01,2013-05-26 15:14:00,
2013-05-26 10:19:00,67.6,57.1,30.17,South,169,2.0,8.0,69,0.00,,SCT070,0.00,VWS V14.01,2013-05-26 15:19:00,
2013-05-26 10:24:00,68.1,57.2,30.18,SSE,148,1.0,8.0,68,0.00,,SCT070,0.00,VWS V14.01,2013-05-26 15:24:00,
2013-05-26 10:29:00,68.2,56.8,30.18,East,101,2.0,12.0,67,0.00,,SCT070,0.00,VWS V14.01,2013-05-26 15:29:00,
2013-05-26 10:34:00,68.4,57.4,30.18,SW,217,1.0,7.0,68,0.00,,SCT070,0.00,VWS V14.01,2013-05-26 15:34:00,
2013-05-26 10:39:00,68.6,57.6,30.18,SE,134,0.0,9.0,68,0.00,,SCT070,0.00,VWS V14.01,2013-05-26 15:39:00,
2013-05-26 10:44:00,69.0,58.0,30.18,South,180,4.0,11.0,68,0.00,,CLR,0.00,VWS V14.01,2013-05-26 15:44:00,
2013-05-26 10:49:00,68.8,57.4,30.17,ESE,109,4.0,11.0,67,0.00,,CLR,0.00,VWS V14.01,2013-05-26 15:49:00,
2013-05-26 10:54:00,69.4,57.6,30.17,South,187,1.0,13.0,66,0.00,,CLR,0.00,VWS V14.01,2013-05-26 15:54:00,
2013-05-26 10:59:00,69.5,58.1,30.17,East,82,3.0,13.0,67,0.00,,CLR,0.00,VWS V14.01,2013-05-26 15:59:00,
2013-05-26 11:04:00,70.4,58.5,30.17,SSW,202,5.0,10.0,66,0.00,,CLR,0.00,VWS V14.01,2013-05-26 16:04:00,
2013-05-26 11:09:00,70.8,58.9,30.17,SSE,153,4.0,11.0,66,0.00,,CLR,0.00,VWS V14.01,2013-05-26 16:09:00,
2013-05-26 11:14:00,71.2,59.7,30.16,ESE,119,4.0,4.0,67,0.00,,CLR,0.00,VWS V14.01,2013-05-26 16:14:00,
2013-05-26 11:19:00,71.6,59.7,30.16,SSW,207,0.0,10.0,66,0.00,,CLR,0.00,VWS V14.01,2013-05-26 16:19:00,
2013-05-26 11:24:00,71.9,59.5,30.16,SE,128,8.0,8.0,65,0.00,,CLR,0.00,VWS V14.01,2013-05-26 16:24:00,
2013-05-26 11:29:00,71.6,58.3,30.16,SE,144,8.0,11.0,63,0.00,,CLR,0.00,VWS V14.01,2013-05-26 16:29:00,
2013-05-26 11:34:00,72.2,59.8,30.16,SSE,154,2.0,9.0,65,0.00,,CLR,0.00,VWS V14.01,2013-05-26 16:34:00,
2013-05-26 11:39:00,72.9,59.6,30.17,SSE,167,1.0,9.0,63,0.00,,CLR,0.00,VWS V14.01,2013-05-26 16:39:00,
2013-05-26 11:44:00,72.7,58.5,30.16,ESE,110,4.0,12.0,61,0.00,,CLR,0.00,VWS V14.01,2013-05-26 16:44:00,
2013-05-26 11:49:00,72.8,59.5,30.16,SSW,213,3.0,12.0,63,0.00,,CLR,0.00,VWS V14.01,2013-05-26 16:49:00,
2013-05-26 11:54:00,72.5,58.8,30.16,SSE,150,9.0,11.0,62,0.00,,CLR,0.00,VWS V14.01,2013-05-26 16:54:00,
2013-05-26 11:59:00,73.2,60.3,30.16,South,187,4.0,14.0,64,0.00,,CLR,0.00,VWS V14.01,2013-05-26 16:59:00,
2013-05-26 12:04:00,73.0,60.1,30.16,ESE,113,1.0,7.0,64,0.00,,CLR,0.00,VWS V14.01,2013-05-26 17:04:00,
2013-05-26 12:09:00,73.4,59.2,30.16,SSE,152,2.0,9.0,61,0.00,,CLR,0.00,VWS V14.01,2013-05-26 17:09:00,
2013-05-26 12:14:00,74.0,60.2,30.16,South,182,3.0,10.0,62,0.00,,CLR,0.00,VWS V14.01,2013-05-26 17:14:00,
2013-05-26 12:19:00,74.1,60.3,30.16,SSE,148,4.0,10.0,62,0.00,,CLR,0.00,VWS V14.01,2013-05-26 17:19:00,
2013-05-26 12:24:00,73.7,59.9,30.16,South,173,0.0,6.0,62,0.00,,CLR,0.00,VWS V14.01,2013-05-26 17:24:00,
2013-05-26 12:29:00,74.2,59.9,30.15,SSE,159,4.0,8.0,61,0.00,,CLR,0.00,VWS V14.01,2013-05-26 17:29:00,
2013-05-26 12:34:00,74.5,59.7,30.15,SSW,209,0.0,9.0,60,0.00,,CLR,0.00,VWS V14.01,2013-05-26 17:34:00,
2013-05-26 12:39:00,74.4,59.6,30.15,ENE,75,5.0,10.0,60,0.00,,CLR,0.00,VWS V14.01,2013-05-26 17:39:00,
2013-05-26 12:44:00,74.0,59.7,30.15,SE,138,2.0,7.0,61,0.00,,SCT039,0.00,VWS V14.01,2013-05-26 17:44:00,
2013-05-26 12:49:00,73.9,60.1,30.15,SE,133,4.0,9.0,62,0.00,,SCT039,0.00,VWS V14.01,2013-05-26 17:49:00,
2013-05-26 12:54:00,74.0,60.2,30.15,South,187,2.0,9.0,62,0.00,,SCT039,0.00,VWS V14.01,2013-05-26 17:54:00,
2013-05-26 12:59:00,74.2,60.8,30.14,South,188,0.0,9.0,63,0.00,,SCT039,0.00,VWS V14.01,2013-05-26 17:59:00,
2013-05-26 13:04:00,74.9,61.0,30.14,SSE,152,0.0,5.0,62,0.00,,SCT046,0.00,VWS V14.01,2013-05-26 18:04:00,
2013-05-26 13:09:00,75.1,61.2,30.14,SSW,193,3.0,7.0,62,0.00,,SCT046,0.00,VWS V14.01,2013-05-26 18:09:00,
2013-05-26 13:14:00,75.4,60.6,30.14,South,186,0.0,4.0,60,0.00,,SCT046,0.00,VWS V14.01,2013-05-26 18:14:00,
2013-05-26 13:19:00,76.2,61.3,30.14,South,180,5.0,8.0,60,0.00,,SCT046,0.00,VWS V14.01,2013-05-26 18:19:00,
2013-05-26 13:24:00,75.8,60.9,30.14,SSE,168,6.0,8.0,60,0.00,,SCT046,0.00,VWS V14.01,2013-05-26 18:24:00,
2013-05-26 13:29:00,76.3,60.9,30.14,SE,139,0.0,9.0,59,0.00,,SCT046,0.00,VWS V14.01,2013-05-26 18:29:00,
2013-05-26 13:34:00,76.0,60.7,30.14,East,85,7.0,10.0,59,0.00,,SCT046,0.00,VWS V14.01,2013-05-26 18:34:00,
2013-05-26 13:39:00,75.9,61.0,30.14,SSW,210,6.0,10.0,60,0.00,,SCT046,0.00,VWS V14.01,2013-05-26 18:39:00,
2013-05-26 13:44:00,75.7,61.3,30.14,South,186,5.0,6.0,61,0.00,,SCT048,0.00,VWS V14.01,2013-05-26 18:44:00,
2013-05-26 13:49:00,75.5,62.0,30.13,South,189,3.0,9.0,63,0.00,,SCT048,0.00,VWS V14.01,2013-05-26 18:49:00,
2013-05-26 13:54:00,75.8,61.4,30.13,SSE,167,0.0,8.0,61,0.00,,SCT048,0.00,VWS V14.01,2013-05-26 18:54:00,
2013-05-26 13:59:00,76.4,62.0,30.13,SE,129,4.0,8.0,61,0.00,,SCT048,0.00,VWS V14.01,2013-05-26 18:59:00,
2013-05-26 14:04:00,76.4,61.5,30.13,SE,127,5.0,7.0,60,0.00,,SCT048,0.00,VWS V14.01,2013-05-26 19:04:00,
2013-05-26 14:09:00,76.7,62.7,30.13,SSE,153,0.0,11.0,62,0.00,,SCT048,0.00,VWS V14.01,2013-05-26 19:09:00,
2013-05-26 14:14:00,77.0,62.5,30.13,South,173,0.0,8.0,61,0.00,,SCT048,0.00,VWS V14.01,2013-05-26 19:14:00,
2013-05-26 14:19:00,76.5,61.6,30.13,SE,144,1.0,8.0,60,0.00,,SCT048,0.00,VWS V14.01,2013-05-26 19:19:00,
2013-05-26 14:24:00,76.2,62.2,30.13,SSE,155,0.0,6.0,62,0.00,,SCT048,0.00,VWS V14.01,2013-05-26 19:24:00,
2013-05-26 14:29:00,76.2,62.2,30.13,SE,133,0.0,8.0,62,0.00,,SCT048,0.00,VWS V14.01,2013-05-26 19:29:00,
2013-05-26 14:34:00,76.1,61.7,30.13,SE,139,2.0,7.0,61,0.00,,SCT048,0.00,VWS V14.01,2013-05-26 19:34:00,
2013-05-26 14:39:00,76.0,62.0,30.12,SE,132,5.0,7.0,62,0.00,,SCT048,0.00,VWS V14.01,2013-05-26 19:39:00,
2013-05-26 14:44:00,75.9,62.0,30.12,SE,130,1.0,6.0,62,0.00,,BKN037,0.00,VWS V14.01,2013-05-26 19:44:00,
2013-05-26 14:49:00,76.2,62.7,30.12,ESE,123,0.0,6.0,63,0.00,,BKN037,0.00,VWS V14.01,2013-05-26 19:49:00,
2013-05-26 14:54:00,76.3,62.8,30.11,ESE,109,0.0,8.0,63,0.00,,BKN037,0.00,VWS V14.01,2013-05-26 19:54:00,
2013-05-26 14:59:00,76.2,62.7,30.11,SE,136,0.0,8.0,63,0.00,,BKN037,0.00,VWS V14.01,2013-05-26 19:59:00,
2013-05-26 15:04:00,76.2,62.7,30.11,SE,137,0.0,1.0,63,0.00,,OVC035,0.00,VWS V14.01,2013-05-26 20:04:00,
2013-05-26 15:09:00,76.1,62.6,30.11,East,94,0.0,6.0,63,0.00,,OVC035,0.00,VWS V14.01,2013-05-26 20:09:00,
2013-05-26 15:14:00,76.1,63.0,30.11,East,94,0.0,1.0,64,0.00,,OVC035,0.00,VWS V14.01,2013-05-26 20:14:00,
2013-05-26 15:19:00,76.1,62.6,30.10,SE,132,1.0,6.0,63,0.00,,OVC035,0.00,VWS V14.01,2013-05-26 20:19:00,
2013-05-26 15:24:00,76.3,62.8,30.10,SE,141,1.0,7.0,63,0.00,,OVC035,0.00,VWS V14.01,2013-05-26 20:24:00,
2013-05-26 15:29:00,76.8,63.3,30.09,SE,142,5.0,7.0,63,0.00,,OVC035,0.00,VWS V14.01,2013-05-26 20:29:00,
2013-05-26 15:34:00,77.3,63.7,30.09,South,175,1.0,5.0,63,0.00,,OVC035,0.00,VWS V14.01,2013-05-26 20:34:00,
2013-05-26 15:39:00,78.1,64.0,30.09,SE,141,5.0,6.0,62,0.00,,OVC035,0.00,VWS V14.01,2013-05-26 20:39:00,
2013-05-26 15:44:00,77.8,63.8,30.09,SE,138,2.0,7.0,62,0.00,,OVC041,0.00,VWS V14.01,2013-05-26 20:44:00,
2013-05-26 15:49:00,77.2,63.2,30.09,ESE,111,0.0,8.0,62,0.00,,OVC041,0.00,VWS V14.01,2013-05-26 20:49:00,
2013-05-26 15:54:00,77.2,63.6,30.09,East,94,4.0,4.0,63,0.00,,OVC041,0.00,VWS V14.01,2013-05-26 20:54:00,
2013-05-26 15:59:00,77.2,63.6,30.09,ESE,119,0.0,4.0,63,0.00,,OVC041,0.00,VWS V14.01,2013-05-26 20:59:00,
2013-05-26 16:04:00,77.5,64.4,30.08,ESE,118,2.0,5.0,64,0.00,,BKN043,0.00,VWS V14.01,2013-05-26 21:04:00,
2013-05-26 16:09:00,78.1,64.5,30.08,SE,129,1.0,5.0,63,0.00,,BKN043,0.00,VWS V14.01,2013-05-26 21:09:00,
2013-05-26 16:14:00,78.4,64.3,30.08,ESE,117,0.0,7.0,62,0.00,,BKN043,0.00,VWS V14.01,2013-05-26 21:14:00,
2013-05-26 16:19:00,78.2,64.1,30.08,ESE,110,0.0,8.0,62,0.00,,BKN043,0.00,VWS V14.01,2013-05-26 21:19:00,
2013-05-26 16:24:00,77.9,63.8,30.07,SE,137,2.0,8.0,62,0.00,,BKN043,0.00,VWS V14.01,2013-05-26 21:24:00,
2013-05-26 16:29:00,77.8,64.2,30.08,ESE,120,4.0,10.0,63,0.00,,BKN043,0.00,VWS V14.01,2013-05-26 21:29:00,
2013-05-26 16:34:00,78.1,64.0,30.07,SE,132,7.0,9.0,62,0.00,,BKN043,0.00,VWS V14.01,2013-05-26 21:34:00,
2013-05-26 16:39:00,78.4,64.8,30.07,South,185,3.0,9.0,63,0.00,,BKN043,0.00,VWS V14.01,2013-05-26 21:39:00,
2013-05-26 16:44:00,78.8,64.7,30.07,SW,214,5.0,7.0,62,0.00,,BKN065,0.00,VWS V14.01,2013-05-26 21:44:00,
2013-05-26 16:49:00,78.8,64.7,30.07,East,95,1.0,12.0,62,0.00,,BKN065,0.00,VWS V14.01,2013-05-26 21:49:00,
2013-05-26 16:54:00,79.1,65.0,30.07,SE,132,1.0,11.0,62,0.00,,BKN065,0.00,VWS V14.01,2013-05-26 21:54:00,
2013-05-26 16:59:00,78.9,64.8,30.07,SSE,158,6.0,11.0,62,0.00,,BKN065,0.00,VWS V14.01,2013-05-26 21:59:00,
2013-05-26 17:04:00,78.7,64.6,30.06,ESE,103,0.0,7.0,62,0.00,,SCT075,0.00,VWS V14.01,2013-05-26 22:04:00,
2013-05-26 17:09:00,78.8,64.7,30.06,ESE,119,11.0,11.0,62,0.00,,SCT075,0.00,VWS V14.01,2013-05-26 22:09:00,
2013-05-26 17:14:00,78.5,64.4,30.06,SE,140,4.0,7.0,62,0.00,,SCT075,0.00,VWS V14.01,2013-05-26 22:14:00,
2013-05-26 17:19:00,78.6,64.5,30.06,ENE,74,0.0,8.0,62,0.00,,SCT075,0.00,VWS V14.01,2013-05-26 22:19:00,
2013-05-26 17:24:00,78.6,64.5,30.06,ENE,71,4.0,9.0,62,0.00,,SCT075,0.00,VWS V14.01,2013-05-26 22:24:00,
2013-05-26 17:29:00,78.7,64.6,30.05,ENE,63,1.0,9.0,62,0.00,,SCT075,0.00,VWS V14.01,2013-05-26 22:29:00,
2013-05-26 17:34:00,78.8,65.2,30.05,SSE,150,0.0,6.0,63,0.00,,SCT075,0.00,VWS V14.01,2013-05-26 22:34:00,
2013-05-26 17:39:00,78.8,64.7,30.05,SSE,147,5.0,9.0,62,0.00,,SCT075,0.00,VWS V14.01,2013-05-26 22:39:00,
2013-05-26 17:44:00,78.6,64.5,30.05,SSE,153,0.0,4.0,62,0.00,,CLR,0.00,VWS V14.01,2013-05-26 22:44:00,
2013-05-26 17:49:00,78.5,64.4,30.04,SSE,149,1.0,9.0,62,0.00,,CLR,0.00,VWS V14.01,2013-05-26 22:49:00,
2013-05-26 17:54:00,78.4,64.8,30.04,SE,129,2.0,8.0,63,0.00,,CLR,0.00,VWS V14.01,2013-05-26 22:54:00,
2013-05-26 17:59:00,78.3,64.7,30.04,ENE,76,4.0,8.0,63,0.00,,CLR,0.00,VWS V14.01,2013-05-26 22:59:00,
2013-05-26 18:04:00,78.2,64.6,30.04,South,171,0.0,8.0,63,0.00,,CLR,0.00,VWS V14.01,2013-05-26 23:04:00,
2013-05-26 18:09:00,78.1,64.9,30.04,ESE,118,0.0,8.0,64,0.00,,CLR,0.00,VWS V14.01,2013-05-26 23:09:00,
2013-05-26 18:14:00,78.1,64.5,30.03,SE,129,0.0,9.0,63,0.00,,CLR,0.00,VWS V14.01,2013-05-26 23:14:00,
2013-05-26 18:20:00,78.1,64.9,30.04,SSE,162,0.0,9.0,64,0.00,,CLR,0.00,VWS V14.01,2013-05-26 23:20:00,
2013-05-26 18:25:00,78.0,64.8,30.03,SE,126,0.0,4.0,64,0.00,,CLR,0.00,VWS V14.01,2013-05-26 23:25:00,
2013-05-26 18:30:00,78.0,64.8,30.03,ESE,113,4.0,6.0,64,0.00,,CLR,0.00,VWS V14.01,2013-05-26 23:30:00,
2013-05-26 18:35:00,77.9,64.3,30.03,SE,134,0.0,2.0,63,0.00,,CLR,0.00,VWS V14.01,2013-05-26 23:35:00,
2013-05-26 18:40:00,77.9,64.3,30.03,ESE,106,0.0,5.0,63,0.00,,CLR,0.00,VWS V14.01,2013-05-26 23:40:00,
2013-05-26 18:45:00,77.8,63.8,30.03,South,180,0.0,11.0,62,0.00,,CLR,0.00,VWS V14.01,2013-05-26 23:45:00,
2013-05-26 18:50:00,77.7,63.7,30.03,SE,126,1.0,11.0,62,0.00,,CLR,0.00,VWS V14.01,2013-05-26 23:50:00,
2013-05-26 18:55:00,77.6,63.6,30.03,SE,126,1.0,2.0,62,0.00,,CLR,0.00,VWS V14.01,2013-05-26 23:55:00,
2013-05-26 19:00:00,77.5,63.5,30.03,SE,125,1.0,4.0,62,0.00,,CLR,0.00,VWS V14.01,2013-05-27 00:00:00,
2013-05-26 19:05:00,77.3,63.7,30.03,SSE,150,0.0,7.0,63,0.00,,CLR,0.00,VWS V14.01,2013-05-27 00:05:00,
2013-05-26 19:10:00,77.1,63.5,30.03,South,189,0.0,7.0,63,0.00,,CLR,0.00,VWS V14.01,2013-05-27 00:10:00,
2013-05-26 19:15:00,77.0,63.5,30.03,South,184,0.0,2.0,63,0.00,,CLR,0.00,VWS V14.01,2013-05-27 00:15:00,
2013-05-26 19:20:00,76.8,63.7,30.03,South,184,0.0,2.0,64,0.00,,CLR,0.00,VWS V14.01,2013-05-27 00:20:00,
2013-05-26 19:25:00,76.6,63.5,30.03,South,180,0.0,1.0,64,0.00,,CLR,0.00,VWS V14.01,2013-05-27 00:25:00,
2013-05-26 19:30:00,76.5,63.4,30.03,South,180,0.0,2.0,64,0.00,,CLR,0.00,VWS V14.01,2013-05-27 00:30:00,
2013-05-26 19:35:00,76.3,63.7,30.03,South,180,0.0,0.0,65,0.00,,CLR,0.00,VWS V14.01,2013-05-27 00:35:00,
2013-05-26 19:40:00,76.1,63.9,30.03,SSE,154,0.0,1.0,66,0.00,,CLR,0.00,VWS V14.01,2013-05-27 00:40:00,
2013-05-26 19:45:00,75.9,63.7,30.03,SE,140,0.0,4.0,66,0.00,,CLR,0.00,VWS V14.01,2013-05-27 00:45:00,
2013-05-26 19:50:00,75.7,64.0,30.03,South,171,1.0,4.0,67,0.00,,CLR,0.00,VWS V14.01,2013-05-27 00:50:00,
2013-05-26 19:55:00,75.4,63.7,30.03,South,171,0.0,2.0,67,0.00,,CLR,0.00,VWS V14.01,2013-05-27 00:55:00,
2013-05-26 20:00:00,75.2,63.5,30.03,South,171,0.0,2.0,67,0.00,,CLR,0.00,VWS V14.01,2013-05-27 01:00:00,
2013-05-26 20:05:00,75.0,63.7,30.03,SSE,163,0.0,4.0,68,0.00,,CLR,0.00,VWS V14.01,2013-05-27 01:05:00,
2013-05-26 20:10:00,74.8,63.5,30.02,South,191,0.0,5.0,68,0.00,,CLR,0.00,VWS V14.01,2013-05-27 01:10:00,
2013-05-26 20:15:00,74.6,63.3,30.03,SSE,168,0.0,2.0,68,0.00,,CLR,0.00,VWS V14.01,2013-05-27 01:15:00,
2013-05-26 20:20:00,74.4,63.6,30.03,SE,143,0.0,2.0,69,0.00,,CLR,0.00,VWS V14.01,2013-05-27 01:20:00,
2013-05-26 20:25:00,74.3,63.5,30.03,SSE,160,0.0,4.0,69,0.00,,CLR,0.00,VWS V14.01,2013-05-27 01:25:00,
2013-05-26 20:30:00,74.1,63.3,30.02,SSE,166,0.0,4.0,69,0.00,,CLR,0.00,VWS V14.01,2013-05-27 01:30:00,
2013-05-26 20:35:00,74.0,63.2,30.02,SE,125,0.0,4.0,69,0.00,,CLR,0.00,VWS V14.01,2013-05-27 01:35:00,
2013-05-26 20:40:00,73.8,63.4,30.02,South,190,3.0,4.0,70,0.00,,CLR,0.00,VWS V14.01,2013-05-27 01:40:00,
2013-05-26 20:45:00,73.8,63.4,30.02,ESE,115,0.0,2.0,70,0.00,,CLR,0.00,VWS V14.01,2013-05-27 01:45:00,
2013-05-26 20:50:00,73.6,63.2,30.02,SE,145,0.0,4.0,70,0.00,,CLR,0.00,VWS V14.01,2013-05-27 01:50:00,
2013-05-26 20:55:00,73.5,63.5,30.03,SE,145,0.0,1.0,71,0.00,,CLR,0.00,VWS V14.01,2013-05-27 01:55:00,
2013-05-26 21:00:00,73.3,63.3,30.03,SSE,154,0.0,6.0,71,0.00,,CLR,0.00,VWS V14.01,2013-05-27 02:00:00,
2013-05-26 21:05:00,73.2,63.2,30.03,SSE,150,1.0,5.0,71,0.00,,CLR,0.00,VWS V14.01,2013-05-27 02:05:00,
2013-05-26 21:10:00,73.1,63.2,30.03,SSE,150,0.0,5.0,71,0.00,,CLR,0.00,VWS V14.01,2013-05-27 02:10:00,
2013-05-26 21:15:00,73.0,63.5,30.03,SSE,150,0.0,1.0,72,0.00,,CLR,0.00,VWS V14.01,2013-05-27 02:15:00,
2013-05-26 21:20:00,72.8,63.3,30.03,SE,146,2.0,4.0,72,0.00,,CLR,0.00,VWS V14.01,2013-05-27 02:20:00,
2013-05-26 21:25:00,72.7,63.2,30.03,SE,139,0.0,1.0,72,0.00,,CLR,0.00,VWS V14.01,2013-05-27 02:25:00,
2013-05-26 21:30:00,72.6,63.5,30.03,South,190,0.0,3.0,73,0.00,,CLR,0.00,VWS V14.01,2013-05-27 02:30:00,
2013-05-26 21:35:00,72.5,63.4,30.03,South,169,0.0,6.0,73,0.00,,CLR,0.00,VWS V14.01,2013-05-27 02:35:00,
2013-05-26 21:40:00,72.4,63.3,30.03,SSE,155,0.0,7.0,73,0.00,,CLR,0.00,VWS V14.01,2013-05-27 02:40:00,
2013-05-26 21:45:00,72.4,63.3,30.03,South,175,0.0,5.0,73,0.00,,CLR,0.00,VWS V14.01,2013-05-27 02:45:00,
2013-05-26 21:50:00,72.2,63.1,30.03,SE,136,0.0,5.0,73,0.00,,CLR,0.00,VWS V14.01,2013-05-27 02:50:00,
2013-05-26 21:55:00,72.2,63.1,30.03,SE,145,0.0,6.0,73,0.00,,CLR,0.00,VWS V14.01,2013-05-27 02:55:00,
2013-05-26 22:00:00,72.1,63.0,30.03,SSE,165,0.0,6.0,73,0.00,,CLR,0.00,VWS V14.01,2013-05-27 03:00:00,
2013-05-26 22:05:00,72.0,63.3,30.03,South,175,0.0,6.0,74,0.00,,CLR,0.00,VWS V14.01,2013-05-27 03:05:00,
2013-05-26 22:10:00,71.9,63.2,30.03,SSE,157,0.0,8.0,74,0.00,,CLR,0.00,VWS V14.01,2013-05-27 03:10:00,
2013-05-26 22:15:00,71.8,63.1,30.03,SSE,165,2.0,5.0,74,0.00,,CLR,0.00,VWS V14.01,2013-05-27 03:15:00,
2013-05-26 22:20:00,71.7,63.0,30.02,SSE,163,0.0,5.0,74,0.00,,CLR,0.00,VWS V14.01,2013-05-27 03:20:00,
2013-05-26 22:25:00,71.7,63.0,30.03,SSE,163,0.0,4.0,74,0.00,,CLR,0.00,VWS V14.01,2013-05-27 03:25:00,
2013-05-26 22:30:00,71.5,62.8,30.03,South,174,0.0,6.0,74,0.00,,CLR,0.00,VWS V14.01,2013-05-27 03:30:00,
2013-05-26 22:35:00,71.4,62.7,30.03,South,175,0.0,1.0,74,0.00,,CLR,0.00,VWS V14.01,2013-05-27 03:35:00,
2013-05-26 22:40:00,71.4,62.7,30.03,SSE,156,1.0,5.0,74,0.00,,CLR,0.00,VWS V14.01,2013-05-27 03:40:00,
2013-05-26 22:45:00,71.3,62.6,30.03,SE,134,0.0,6.0,74,0.00,,CLR,0.00,VWS V14.01,2013-05-27 03:45:00,
2013-05-26 22:50:00,71.2,62.5,30.03,South,177,0.0,6.0,74,0.00,,CLR,0.00,VWS V14.01,2013-05-27 03:50:00,
2013-05-26 22:55:00,71.2,62.5,30.03,South,173,4.0,7.0,74,0.00,,CLR,0.00,VWS V14.01,2013-05-27 03:55:00,
2013-05-26 23:00:00,71.2,62.1,30.02,South,178,0.0,7.0,73,0.00,,CLR,0.00,VWS V14.01,2013-05-27 04:00:00,
2013-05-26 23:01:00,71.2,62.1,30.02,South,186,3.0,7.0,73,0.00,,CLR,0.00,VWS V14.01,2013-05-27 04:01:00,
2013-05-26 23:05:00,71.2,62.1,30.02,South,171,0.0,3.0,73,0.00,,CLR,0.00,VWS V14.01,2013-05-27 04:05:00,
2013-05-26 23:10:00,71.2,62.1,30.02,South,174,0.0,7.0,73,0.00,,CLR,0.00,VWS V14.01,2013-05-27 04:10:00,
2013-05-26 23:11:00,71.2,62.1,30.02,SSW,197,2.0,8.0,73,0.00,,CLR,0.00,VWS V14.01,2013-05-27 04:11:00,
2013-05-26 23:15:00,71.2,62.1,30.02,South,187,0.0,4.0,73,0.00,,CLR,0.00,VWS V14.01,2013-05-27 04:15:00,
2013-05-26 23:20:00,71.2,62.1,30.02,SSE,159,1.0,8.0,73,0.00,,CLR,0.00,VWS V14.01,2013-05-27 04:20:00,
2013-05-26 23:21:00,71.2,62.1,30.02,South,180,0.0,8.0,73,0.00,,CLR,0.00,VWS V14.01,2013-05-27 04:21:00,
2013-05-26 23:30:00,71.0,61.9,30.02,South,176,2.0,7.0,73,0.00,,CLR,0.00,VWS V14.01,2013-05-27 04:30:00,
2013-05-26 23:35:00,70.8,61.7,30.01,SSE,163,2.0,9.0,73,0.00,,CLR,0.00,VWS V14.01,2013-05-27 04:35:00,
2013-05-26 23:40:00,70.6,61.9,30.01,SE,130,0.0,9.0,74,0.00,,CLR,0.00,VWS V14.01,2013-05-27 04:40:00,
2013-05-26 23:45:00,70.5,61.8,30.01,SSE,159,0.0,5.0,74,0.00,,CLR,0.00,VWS V14.01,2013-05-27 04:45:00,
2013-05-26 23:50:00,70.4,61.7,30.01,South,173,0.0,9.0,74,0.00,,CLR,0.00,VWS V14.01,2013-05-27 04:50:00,
2013-05-26 23:55:00,70.4,61.7,30.01,SE,144,0.0,5.0,74,0.00,,CLR,0.00,VWS V14.01,2013-05-27 04:55:00,